USA 167

Last updated on Thu Jul 03 2025 00:02:44 GMT+0000 (Coordinated Universal Time)

1 27691U 03008A 25183.41259116 .00000004 00000+0 00000+0 0 9996 2 27691 10.2632 46.4518 0002134 312.4471 308.6919 1.00273314 3269
UTC large
Height (km)
Speed (km/s)
/
Latitude / Longitude
Inclination (degrees)
Orbital Period (minutes)
Azimuth
Elevation
Range (km)
Doppler Factor

Next 0 passes for location: London (51.5072 / 0.1276)

Sorry there are no passes over London.